DW3200 Weather Reports


time (UTC)temp
C
wind
direction
speed
KPH
gust
KPH
rain 1hr
cm
rain 24hr
cm
rain mn
cm
humidity
%
barometer
mb
20260904074504 8 271 0.0 0.0 0.00 0.00 0.97 94 1009.8
20260904073056 8 271 0.0 0.0 0.00 0.00 0.91 94 1009.6
20260904071547 8 271 1.6 0.0 0.00 0.00 0.86 94 1009.7
20260904070027 8 271 0.0 0.0 0.00 0.00 0.84 93 1009.3
20260904064532 8 271 4.8 0.0 0.00 0.00 0.81 93 1009.2
20260904063012 8 280 8.0 0.0 0.00 0.00 0.76 93 1008.9
20260904061504 8 283 8.0 0.0 0.00 0.00 0.71 93 1008.5
20260904060104 8 288 8.0 0.0 0.00 0.00 0.71 93 1008.4
20260904054551 8 281 9.7 0.0 0.00 0.00 0.66 93 1008.3
20260904053025 8 288 11.3 0.0 0.00 0.00 0.64 92 1008.2
20260904051522 10 296 4.8 0.0 0.00 0.00 0.61 92 1008.1
20260904050001 10 304 4.8 0.0 0.00 0.00 0.56 92 1007.9
20260904044602 10 360 6.4 0.0 0.00 0.00 0.53 92 1007.9
20260904043042 10 14 0.0 0.0 0.00 0.00 0.51 92 1008.4
20260904041543 10 14 0.0 0.0 0.00 0.00 0.51 91 1008.5
20260904040037 11 14 0.0 0.0 0.00 0.00 0.46 91 1008.6
20260904034523 11 14 0.0 0.0 0.00 0.00 0.46 91 1008.3
20260904033005 11 14 0.0 0.0 0.00 0.00 0.43 91 1008.6
20260904031504 11 14 1.6 0.0 0.00 0.00 0.41 90 1008.2
20260904030047 11 14 0.0 0.0 0.00 0.00 0.38 90 1008.2
20260904024551 11 14 0.0 0.0 0.00 0.00 0.36 89 1007.9
20260904023036 11 14 1.6 0.0 0.00 0.00 0.36 88 1008.3
20260904021541 12 15 0.0 0.0 0.00 0.00 0.33 87 1007.6
20260904020010 12 14 0.0 0.0 0.00 0.00 0.33 86 1007.8
20260904014509 12 14 0.0 0.0 0.00 0.00 0.30 85 1007.8
20260904013110 13 15 0.0 0.0 0.00 0.00 0.30 84 1008.2
20260904011550 13 14 0.0 0.0 0.00 0.00 0.28 83 1008.3
20260904010034 13 15 0.0 0.0 0.00 0.00 0.28 81 1008.4
20260904004532 13 14 0.0 0.0 0.00 0.00 0.25 79 1008.2
20260904003024 14 14 0.0 0.0 0.00 0.00 0.25 78 1008.5
20260904001522 14 15 0.0 0.0 0.00 0.00 0.25 78 1008.5
20260904000019 14 15 0.0 0.0 0.00 0.00 0.25 77 1008.2
20260903234517 14 14 0.0 0.0 0.00 0.00 0.25 75 1008.8
20260903233030 14 15 1.6 0.0 0.00 0.00 0.25 74 1008.7
20260903231517 14 13 1.6 0.0 0.00 0.00 0.25 73 1008.8
20260903230012 15 13 0.0 0.0 0.00 0.00 0.25 72 1009.1
20260903224522 15 13 1.6 0.0 0.00 0.00 0.25 71 1009.2
20260903223053 15 11 1.6 0.0 0.00 0.00 0.25 72 1009.3
20260903221551 15 9 0.0 0.0 0.00 0.00 0.25 71 1009.4
20260903220031 14 9 1.6 0.0 0.00 0.00 0.25 73 1010.0
20260903214534 14 5 1.6 0.0 0.00 0.00 0.25 74 1010.1
20260903213011 14 360 1.6 0.0 0.00 0.00 0.25 77 1010.1
20260903211510 14 322 1.6 0.0 0.00 0.00 0.25 77 1010.0
20260903210052 13 301 1.6 0.0 0.00 0.00 0.25 82 1010.0
20260903204548 13 300 1.6 0.0 0.00 0.00 0.25 84 1010.3
20260903203029 12 299 0.0 0.0 0.00 0.00 0.25 85 1010.3
20260903201529 12 299 1.6 0.0 0.00 0.00 0.25 87 1010.4
20260903200010 12 298 0.0 0.0 0.00 0.00 0.25 89 1010.4
20260903194508 12 298 0.0 0.0 0.00 0.00 0.25 90 1010.5
20260903193108 11 298 1.6 0.0 0.00 0.00 0.25 91 1010.7
20260903191549 11 293 0.0 0.0 0.00 0.00 0.25 92 1010.7
20260903190047 11 293 4.8 0.0 0.00 0.00 0.25 92 1010.9
20260903184528 11 293 1.6 0.0 0.00 0.00 0.25 92 1011.0
20260903183031 11 293 0.0 0.0 0.00 0.00 0.25 93 1011.1
20260903181516 11 293 0.0 0.0 0.00 0.00 0.25 93 1011.0
20260903180024 11 293 0.0 0.0 0.00 0.00 0.25 94 1011.0
20260903174513 11 293 1.6 0.0 0.00 0.00 0.25 94 1010.9
20260903173012 11 292 0.0 0.0 0.00 0.00 0.25 94 1010.7
20260903171509 11 292 0.0 0.0 0.00 0.00 0.25 94 1010.8
20260903170012 10 292 0.0 0.0 0.00 0.00 0.23 94 1010.8
20260903164507 10 292 0.0 0.0 0.00 0.00 0.20 94 1010.7
20260903163007 10 292 1.6 0.0 0.00 0.00 0.20 94 1010.8
20260903161549 10 292 1.6 0.0 0.00 0.00 0.18 94 1010.6
20260903160049 10 292 0.0 0.0 0.00 0.00 0.15 94 1010.6
20260903154528 10 292 0.0 0.0 0.00 0.00 0.13 93 1010.4
20260903153026 10 292 0.0 0.0 0.00 0.00 0.13 94 1010.4
20260903151510 10 292 0.0 0.0 0.00 0.00 0.10 94 1010.3
20260903150014 10 292 0.0 0.0 0.00 0.00 0.08 93 1010.4
20260903144552 10 292 0.0 0.0 0.00 0.00 0.05 94 1010.2
20260903143048 10 292 0.0 0.0 0.00 0.00 0.03 93 1010.1
20260903141534 10 292 0.0 0.0 0.00 0.00 0.00 93 1009.9
20260903140033 10 292 0.0 0.0 0.00 0.00 1.45 93 1009.7
20260903134532 10 292 0.0 0.0 0.00 0.00 1.42 93 1009.5
20260903133035 10 292 0.0 0.0 0.00 0.00 1.42 93 1009.5
20260903131531 10 292 0.0 0.0 0.00 0.00 1.37 93 1009.4
20260903130031 10 292 0.0 0.0 0.00 0.00 1.35 93 1009.1
20260903124530 10 292 0.0 0.0 0.00 0.00 1.32 93 1009.1
20260903123030 10 292 0.0 0.0 0.00 0.00 1.30 92 1008.9
20260903121522 10 292 0.0 0.0 0.00 0.00 1.27 92 1009.0
20260903120011 10 292 0.0 0.0 0.00 0.00 1.24 92 1008.8
20260903114602 10 292 0.0 0.0 0.00 0.00 1.22 92 1008.7
20260903113051 10 292 0.0 0.0 0.00 0.00 1.19 92 1008.8
20260903111534 10 292 0.0 0.0 0.00 0.00 1.19 92 1008.8
20260903110033 10 292 0.0 0.0 0.00 0.00 1.17 92 1008.7
20260903104514 10 292 0.0 0.0 0.00 0.00 1.14 91 1008.7
20260903103018 10 292 0.0 0.0 0.00 0.00 1.14 91 1008.4
20260903101507 10 292 1.6 0.0 0.00 0.00 1.14 91 1008.4
20260903100001 11 292 3.2 0.0 0.00 0.00 1.12 90 1008.3
20260903094545 11 292 4.8 0.0 0.00 0.00 1.12 89 1008.2
20260903093044 11 292 3.2 0.0 0.00 0.00 1.09 88 1008.3
20260903091526 11 292 0.0 0.0 0.00 0.00 1.09 88 1008.3
20260903090026 11 292 0.0 0.0 0.00 0.00 1.09 87 1008.3
20260903084508 11 292 0.0 0.0 0.00 0.00 1.07 86 1008.0
20260903083010 11 292 0.0 0.0 0.00 0.00 1.07 86 1007.9
20260903081550 11 292 0.0 0.0 0.00 0.00 1.07 85 1008.0
20260903080115 12 292 0.0 0.0 0.00 0.00 1.07 84 1008.0